Location: Newark
(48.5156°N, 1.8989°W)
Time: 08:49:19
(UTC+00:00)

Vanguard 1 Rocket - Pass Details

Date: 15 November 2019
Orbit: 650 x 4226 km, 34.3° (Epoch: 10 December)

Event Time Altitude Azimuth Distance (km) Brightness Sun altitude
Rises 06:29:23 0° 241° (WSW) 3,118 9.8 -7.8°
Reaches altitude 10° 06:31:51 10° 226° (SW) 2,379 9.3 -7.4°
Maximum altitude 06:36:08 23° 173° (S) 2,003 9.5 -6.7°
Drops below altitude 10° 06:42:18 10° 124° (SE) 3,562 12.1 -5.8°
Sets 06:47:04 0° 113° (ESE) 5,173 14.4 -5.0°
